Temp
13 13 13 13 13 13 13 13 13 13 13 13 13 13 13 13 13 13 13 13 13 13 13 13 13 13 13 13 13 14 14 15 15 16 17 17 17 17 17 17 17 17 17 17 17 17 17 17 17 17 17 17 17 17 17 17 17 17 17 17 17 17 17 17 17 17 17 17 17
13 13 13 13 13 13 13 13 13 13 13 13 13 13 13 13 13 13 13 13 13 13 13 13 13 13 13 13 14 14 14 15 16 16 17 17 17 17 17 17 17 17 17 17 17 17 17 17 17 17 17 16 17 17 16 16 17 17 17 17 17 17 17 17 17 17 17 17 17
13 13 13 13 13 13 13 13 13 13 13 13 13 13 13 13 13 13 13 13 13 13 13 13 13 13 13 13 14 14 15 15 16 16 17 17 17 17 17 17 17 17 17 17 17 17 17 17 16 16 16 16 16 16 16 16 16 16 17 17 17 17 17 17 17 17 17 17 17
13 13 13 13 13 13 13 13 13 13 13 13 13 13 13 13 13 13 13 13 13 13 13 13 13 13 13 14 14 15 15 16 16 16 17 17 17 17 17 17 17 17 17 16 16 16 16 16 16 16 16 16 16 16 16 16 16 16 16 17 17 17 17 17 17 17 17 17 17
13 13 13 13 13 13 13 13 13 13 13 13 13 13 13 13 13 12 12 12 13 13 13 13 13 13 14 14 14 15 15 16 16 16 17 17 17 18 18 17 17 17 17 17 16 16 16 16 16 16 16 16 16 16 16 16 16 16 16 16 16 16 16 16 17 17 17 17 17
13 13 13 13 13 13 13 13 13 13 13 13 13 13 13 12 12 12 12 12 13 13 13 13 13 13 13 14 14 15 15 15 16 16 17 17 17 18 18 18 18 17 17 17 16 16 16 16 16 16 16 16 16 16 16 16 16 16 16 16 16 16 16 16 16 16 16 16 16
13 13 13 13 13 13 13 13 13 13 13 13 13 13 12 13 12 12 12 13 13 13 13 13 13 13 13 13 14 14 15 15 15 15 16 16 17 17 18 18 18 17 17 17 16 16 16 16 16 16 16 16 16 16 16 16 16 16 16 16 16 16 16 16 16 16 16 16 16
13 13 13 13 13 13 13 13 13 13 13 13 13 13 13 13 13 13 13 13 13 13 13 13 13 13 13 13 13 14 14 14 14 14 14 15 16 17 17 18 18 17 17 17 16 16 16 16 16 16 16 16 16 16 16 16 16 16 16 16 16 16 16 16 16 16 16 16 16
14 13 13 13 13 13 13 13 13 13 13 13 13 12 13 13 13 13 13 13 13 13 13 13 13 13 13 13 13 14 14 14 14 14 14 14 15 16 17 17 18 17 17 17 16 16 16 16 16 16 16 16 16 16 16 16 16 16 16 16 16 16 16 16 16 16 16 16 16
14 13 13 13 13 13 13 13 13 13 13 13 12 12 12 12 12 13 13 13 13 13 13 13 13 13 13 13 13 13 13 13 13 13 13 14 14 15 16 17 17 17 17 17 17 16 16 16 16 16 16 16 16 16 16 16 16 16 16 16 16 16 16 16 16 16 16 16 16
14 14 13 13 13 13 13 13 13 13 13 13 12 12 12 12 12 12 13 13 13 12 12 12 12 13 13 13 13 13 13 13 13 13 13 14 14 15 16 17 17 17 17 17 17 17 16 16 16 16 16 16 16 16 16 16 16 16 16 16 16 16 16 16 16 16 16 16 16
14 14 13 13 13 13 13 13 13 13 13 13 12 12 12 12 12 12 12 12 12 12 12 12 12 12 12 12 12 13 13 13 13 13 13 14 15 15 16 17 17 17 17 17 17 16 16 16 16 16 16 16 16 16 16 16 16 16 16 16 16 16 16 16 16 16 16 16 16
14 14 13 13 13 13 13 13 13 13 13 13 12 12 12 12 12 12 12 12 12 12 12 12 12 12 12 12 12 12 13 13 13 13 14 14 15 15 16 16 16 16 17 17 17 16 16 16 16 16 16 16 16 16 16 16 16 16 16 16 16 16 16 16 16 16 16 16 16
14 14 14 13 13 13 13 13 13 13 13 13 13 12 12 12 12 12 12 12 12 12 12 12 12 12 13 13 13 13 13 13 13 14 14 15 15 15 15 16 16 16 16 17 16 16 16 16 16 16 16 16 16 16 16 16 16 16 16 16 16 16 16 16 16 16 16 16 16
14 14 14 14 13 13 13 13 13 13 13 13 13 13 12 12 12 12 12 12 12 12 12 13 13 13 13 13 14 14 14 14 14 14 14 15 15 15 15 15 15 16 16 16 16 16 16 16 16 16 16 16 16 16 16 16 16 16 16 16 16 16 16 16 16 16 16 16 16
15 14 14 14 14 13 13 13 13 13 13 13 13 13 13 12 12 12 12 12 12 13 13 13 13 13 13 14 14 14 14 14 14 14 15 15 15 15 15 15 15 15 15 16 16 16 16 16 16 16 17 17 16 16 16 16 16 16 16 16 16 16 16 17 17 16 16 16 16
15 15 15 14 14 14 14 14 14 14 13 13 13 13 13 13 13 12 12 12 13 13 13 13 13 13 13 14 14 14 14 15 15 15 15 15 15 15 15 15 15 15 15 15 16 16 16 16 16 16 17 17 17 17 17 17 17 16 16 16 16 16 17 17 17 17 17 17 17
15 15 15 15 14 14 14 14 14 14 14 13 13 13 13 13 13 13 13 13 13 13 13 13 13 13 14 14 14 14 14 15 15 15 15 15 15 15 15 15 15 15 15 15 16 16 16 16 16 17 17 17 17 17 17 17 17 17 17 16 16 17 17 17 17 17 17 17 17
16 16 15 15 15 14 14 14 15 15 14 14 14 14 14 14 14 13 13 13 13 13 13 13 14 14 14 14 14 14 14 14 15 15 15 15 15 15 15 15 15 15 16 16 16 16 16 16 17 17 17 17 17 17 17 17 17 17 17 17 17 17 17 17 17 17 17 17 17
16 16 16 15 15 15 15 15 15 15 15 14 14 14 14 14 14 14 14 13 13 14 14 14 14 14 14 14 14 14 14 14 15 15 15 15 15 15 15 15 15 15 15 16 16 16 16 16 16 17 17 17 17 17 17 17 17 17 17 17 17 17 17 17 17 17 17 17 17
16 16 16 16 15 15 15 15 15 15 15 15 15 14 14 14 14 14 14 14 14 14 14 14 14 14 14 14 14 14 14 14 14 15 15 15 15 15 15 15 15 15 15 15 16 16 16 16 16 17 17 17 17 17 17 17 17 17 17 17 17 17 17 17 17 17 17 17 18
17 16 16 16 16 15 15 15 15 16 15 15 15 15 15 15 15 15 14 14 14 14 14 14 14 14 14 14 14 14 14 14 14 15 15 15 15 15 15 15 15 15 15 15 16 16 16 16 16 16 17 17 17 17 17 17 17 17 17 17 17 17 17 17 17 17 17 18 18
17 17 17 16 16 16 16 16 16 16 16 15 15 15 15 15 15 15 15 15 15 14 14 15 15 15 15 15 15 15 15 15 15 15 15 15 15 15 15 15 15 15 15 15 15 16 16 16 16 16 17 17 17 17 17 17 17 17 17 17 17 18 18 18 18 18 18 18 18
17 17 17 17 17 16 16 16 16 16 16 16 16 15 15 15 16 15 15 15 15 15 15 15 15 15 15 15 15 15 15 15 15 15 15 15 15 15 15 15 15 15 15 15 15 16 16 16 16 16 17 17 17 17 17 17 17 17 17 17 17 17 18 18 18 18 18 18 18
17 17 17 17 17 17 17 16 16 16 16 16 16 16 16 16 16 16 16 15 15 15 15 15 15 15 15 15 15 15 15 15 15 15 15 15 15 15 15 15 15 15 15 15 16 16 16 16 16 16 16 17 17 17 17 17 17 17 17 17 17 17 17 17 18 18 18 18 17
18 18 18 18 17 17 17 17 17 17 17 16 16 16 16 16 16 16 16 16 16 15 15 15 15 15 15 15 16 16 15 15 15 15 15 15 15 16 16 16 16 16 16 16 16 16 16 16 16 17 17 17 17 17 17 17 17 17 17 17 17 17 17 17 17 17 17 17 17
18 18 18 18 18 17 17 17 17 17 17 17 16 16 16 16 16 16 16 16 16 16 16 16 15 16 16 16 16 16 16 16 16 16 16 16 16 16 16 16 16 16 16 16 16 16 16 17 17 17 17 17 17 17 17 17 17 17 17 17 17 17 17 17 17 17 17 17 16
18 18 18 18 18 18 17 17 17 17 17 17 17 16 16 16 16 16 16 16 16 16 16 16 16 16 16 16 16 16 16 16 16 16 16 16 16 16 16 16 16 16 17 17 17 17 17 17 17 17 17 17 17 17 17 17 17 17 17 17 17 17 17 17 17 17 17 16 16
18 18 18 18 18 18 18 18 17 17 17 17 17 17 17 16 16 16 16 16 16 16 16 16 16 16 16 16 16 16 16 16 16 16 16 16 17 17 17 17 17 17 17 17 17 17 17 17 17 18 18 18 18 17 17 17 17 17 17 17 17 17 17 17 17 16 16 15 15
19 19 19 19 19 19 18 18 18 18 17 17 17 17 17 17 17 17 17 17 17 17 17 17 16 16 16 16 17 17 17 17 17 17 17 17 17 17 17 17 17 17 17 17 17 17 18 18 18 18 18 18 18 18 17 17 17 17 17 17 17 17 16 16 15 15 15 14 14
19 19 19 19 19 19 19 19 18 18 18 18 17 17 17 17 17 17 17 17 17 17 17 17 17 17 17 17 17 17 17 18 18 18 17 17 18 18 18 18 18 18 18 18 18 18 18 18 18 18 18 18 18 18 18 17 17 17 17 16 16 16 15 15 14 14 14 13 13
19 19 19 19 19 19 19 19 19 19 18 18 18 18 18 18 18 18 18 18 18 17 17 17 17 17 17 17 17 18 18 18 18 18 18 18 18 18 19 19 19 18 18 18 18 18 18 18 18 18 18 18 18 18 18 17 17 17 16 15 15 14 14 13 13 12 12 12 12
20 19 19 19 19 20 20 20 20 19 19 19 19 18 18 18 18 18 18 18 18 18 18 18 18 18 18 18 18 18 18 18 18 18 18 19 19 19 19 19 18 18 18 18 19 18 18 18 18 18 18 18 18 17 17 17 16 16 15 14 13 13 12 12 11 11 11 11 11
20 20 20 20 20 20 20 20 20 20 20 19 19 19 19 19 19 19 19 19 18 18 18 18 18 18 18 18 18 18 18 18 18 18 18 19 19 19 19 18 17 17 18 18 18 19 19 19 18 18 18 18 17 17 16 16 15 14 13 12 11 11 11 10 10 10 10 9 10
20 20 20 20 20 20 20 20 20 20 20 20 20 19 19 19 19 19 19 19 19 19 19 18 18 18 18 18 18 18 18 18 19 19 19 19 19 19 18 18 16 16 17 17 17 18 18 18 18 18 17 17 17 16 16 15 14 12 11 10 10 9 9 9 9 8 8 9 9
21 20 20 20 20 20 20 20 20 20 20 20 20 20 20 20 20 20 20 20 19 19 19 19 19 18 18 18 18 18 18 18 18 18 18 18 18 18 17 17 15 14 15 15 16 17 17 17 17 17 17 17 16 15 14 13 12 11 10 9 8 8 7 7 7 7 7 8 8
21 21 20 20 20 20 20 20 20 20 20 20 20 20 20 20 20 20 20 20 20 19 19 19 19 19 19 19 19 18 18 17 17 17 17 16 16 16 15 15 13 12 13 14 15 15 16 16 16 16 16 16 15 14 13 11 10 9 8 7 6 6 6 6 6 6 6 6 6
21 21 21 20 20 20 20 20 20 20 20 20 20 20 20 20 20 20 20 20 20 20 20 19 19 19 19 18 17 16 15 14 14 14 14 13 12 13 13 12 10 10 11 13 14 15 15 15 15 15 15 15 14 13 11 10 9 7 6 5 5 4 4 4 4 4 3 3 4
21 21 21 20 20 20 20 20 20 20 20 20 20 20 20 20 20 20 20 20 20 20 20 19 18 18 17 15 14 12 10 10 11 11 11 10 9 9 10 9 8 8 10 11 13 14 14 14 14 14 14 14 13 12 10 9 8 6 5 4 3 2 2 2 2 2 1 2 2
21 21 21 21 20 20 20 20 20 20 20 20 20 20 20 21 21 20 20 19 19 18 17 16 14 13 13 12 11 8 6 6 7 7 7 6 6 6 7 7 6 7 7 9 10 12 12 13 13 12 12 12 12 11 10 9 7 5 4 3 2 1 1 0 0 0 -0 0 1
22 21 21 21 21 20 20 20 20 20 20 20 20 20 20 20 20 19 18 17 16 14 13 11 11 10 10 9 8 6 4 4 4 3 3 3 4 4 4 5 5 5 6 7 8 9 10 11 11 11 11 11 11 10 9 8 6 4 3 1 0 -0 -1 -1 -1 -1 -1 -1 -1
Height
719 720 721 722 724 725 727 728 730 731 733 735 737 739 740 742 744 745 746 747 749 750 752 754 755 757 758 760 761 763 764 765 767 769 770 772 773 775 776 777 778 780 780 782 783 785 786 787 788 789 790 791 792 793 794 795 796 797 798 798 799 800 801 803 804 805 806 806 807
717 719 720 722 723 725 726 728 729 731 732 734 736 737 739 741 742 744 745 746 747 749 751 753 755 755 757 758 760 761 763 764 766 767 769 770 772 774 775 776 777 778 779 780 781 783 784 785 786 788 789 790 791 792 793 794 795 795 796 797 798 799 800 801 802 803 804 805 806
717 718 720 721 723 724 725 727 728 730 731 733 735 736 738 739 741 743 744 745 746 748 750 751 753 754 755 757 758 760 761 763 765 766 768 769 771 772 773 774 775 776 777 778 780 781 782 783 785 786 787 788 789 790 791 792 793 794 795 796 797 798 799 800 801 802 803 804 805
716 717 719 720 721 723 724 725 727 729 730 732 733 735 736 738 740 741 743 744 745 747 748 750 751 752 754 756 757 759 760 761 763 765 766 767 769 770 771 772 773 774 775 776 778 779 780 782 783 784 785 786 787 789 790 790 791 792 793 795 796 797 798 799 800 801 802 802 803
715 716 717 719 720 721 723 724 726 727 729 730 732 734 735 737 739 740 741 743 744 745 746 748 750 751 753 755 756 758 759 760 762 763 765 766 767 768 770 770 771 772 773 774 776 777 779 780 781 782 784 785 786 787 788 789 790 791 792 793 794 795 796 797 798 799 800 801 801
714 715 716 718 719 721 722 723 725 726 728 730 731 733 734 736 737 739 740 741 742 744 745 747 749 750 752 754 755 757 758 759 760 762 763 764 765 767 768 769 770 771 772 773 774 775 777 778 780 781 782 783 784 785 786 787 788 789 790 792 793 794 795 796 797 798 799 799 800
712 714 715 717 718 720 721 722 724 725 727 728 730 731 732 734 735 737 738 740 741 743 744 746 748 750 751 753 754 755 756 758 759 760 761 763 764 765 766 767 768 769 770 771 773 774 775 776 778 779 780 781 782 783 784 785 786 788 789 790 792 793 794 795 795 796 797 797 798
711 713 714 715 717 719 720 721 723 724 725 727 728 729 730 732 734 735 737 739 740 742 743 745 747 749 750 752 753 754 755 755 756 758 759 761 763 764 765 765 766 768 769 770 771 773 774 775 776 777 778 780 780 782 783 784 785 786 788 789 790 791 792 793 794 795 795 796 796
711 712 713 715 716 717 719 720 721 723 724 726 727 728 729 731 732 734 736 738 740 741 743 744 746 748 749 750 752 752 753 753 755 756 758 760 761 763 764 764 765 765 767 768 770 771 773 774 775 775 776 778 779 780 781 783 784 785 786 788 789 790 790 791 792 793 794 794 795
709 711 712 714 715 716 718 719 720 722 723 725 726 727 729 730 731 733 735 736 738 740 742 743 745 746 748 749 750 750 751 752 754 755 757 759 760 762 763 763 763 764 765 766 769 770 772 773 773 774 775 776 777 779 780 781 783 784 785 786 787 788 789 790 790 791 792 792 792
708 709 711 712 714 715 717 718 720 721 723 724 725 726 728 729 730 732 734 736 738 739 740 742 744 745 746 747 748 749 750 751 753 755 756 758 760 761 762 762 762 762 763 765 767 769 771 772 773 773 774 775 776 777 779 780 782 783 784 785 786 787 787 788 789 790 790 790 790
707 708 710 711 713 714 716 717 719 720 722 723 724 726 727 728 730 731 733 735 736 738 739 741 743 744 745 746 747 748 750 751 753 754 756 757 759 760 761 761 761 761 761 763 765 767 770 771 772 773 773 774 775 776 778 779 780 781 782 783 785 785 786 786 787 788 788 789 789
706 707 709 710 712 713 715 716 718 719 720 722 723 725 726 728 729 730 732 734 735 737 739 740 742 743 744 745 746 747 749 750 752 754 755 756 758 759 760 761 761 761 761 761 763 765 767 770 771 772 772 773 774 775 776 778 779 780 781 782 783 784 784 785 785 786 787 787 787
705 706 708 709 711 712 714 715 717 718 719 721 722 724 725 727 728 730 731 733 734 736 738 740 741 742 743 744 745 747 748 750 751 753 754 755 757 758 759 760 760 760 760 761 762 763 765 768 769 770 771 772 773 774 775 776 777 779 780 780 781 782 782 783 784 784 785 785 786
704 705 707 708 710 711 713 714 715 717 718 720 721 722 724 726 727 729 730 732 733 735 737 738 740 741 742 743 745 746 747 749 750 751 753 754 755 756 757 758 759 760 760 761 761 762 764 765 767 769 770 770 771 772 774 775 776 777 778 779 779 780 780 781 782 783 783 784 784
703 704 706 707 709 710 711 713 714 715 717 718 720 721 723 725 726 728 729 731 732 734 736 737 738 740 741 742 744 745 746 747 749 750 751 752 754 755 756 757 758 759 760 760 761 762 763 764 765 767 768 769 770 771 772 773 774 775 776 777 777 778 779 779 780 781 781 782 782
701 703 704 706 707 708 710 711 713 714 715 716 718 720 721 723 725 726 728 729 731 733 734 735 737 738 740 741 742 744 745 746 747 748 750 751 752 753 754 755 756 757 759 760 760 761 762 763 764 765 767 768 769 770 771 772 773 774 774 775 776 776 777 778 778 779 780 780 780
700 701 703 704 705 706 708 709 711 712 714 715 717 718 720 721 723 725 726 728 729 731 732 734 735 737 738 739 740 742 743 744 745 746 748 749 750 751 752 753 755 756 757 758 759 760 760 762 763 764 765 766 767 768 769 770 771 772 772 773 774 775 775 776 776 777 777 778 778
698 700 701 702 703 705 706 708 710 711 712 714 715 717 718 720 721 723 724 726 727 729 730 732 734 735 736 737 739 740 741 743 744 745 746 747 749 750 751 752 753 754 755 756 757 758 759 760 761 762 764 765 765 766 767 768 769 770 770 771 772 773 773 774 775 775 775 775 775
696 698 699 700 702 703 705 706 708 710 711 712 714 715 716 718 720 721 722 724 725 727 729 730 732 733 734 735 737 738 740 741 742 743 745 746 747 748 749 750 751 752 754 755 755 756 757 758 760 760 762 763 764 765 765 766 767 768 768 769 770 770 771 772 772 773 773 773 773
695 696 697 699 700 702 704 705 707 708 710 711 712 714 715 716 718 719 720 722 723 725 727 728 730 731 732 734 735 736 738 739 741 742 743 744 745 746 747 749 750 751 752 753 754 755 756 757 758 759 760 761 762 762 763 764 765 766 766 767 768 768 769 769 770 770 770 771 771
693 695 696 698 700 701 702 704 705 707 708 709 710 712 714 715 716 717 719 720 722 724 725 726 728 729 730 732 733 735 736 738 739 740 741 742 743 745 745 747 748 749 750 751 752 753 754 755 755 757 758 759 760 760 761 762 763 764 764 765 765 766 766 767 767 768 768 769 769
692 693 695 697 698 700 701 702 704 705 706 708 709 710 712 714 715 716 717 719 720 722 723 725 726 727 729 730 732 733 735 736 737 738 739 740 741 742 743 744 745 746 747 748 749 750 751 752 753 754 755 756 757 758 759 760 760 761 762 763 763 764 764 765 765 765 766 766 767
690 692 694 695 697 698 700 701 702 704 705 706 707 709 710 712 713 715 716 717 719 720 722 723 725 726 727 729 730 731 733 734 735 736 737 738 739 740 741 742 743 744 744 745 746 747 748 750 750 752 753 754 755 755 756 757 758 759 760 760 761 761 762 762 763 764 764 765 765
689 690 692 693 695 696 698 699 700 702 703 705 706 707 709 710 712 713 715 716 717 719 720 722 723 725 726 727 728 730 730 731 732 734 735 736 737 737 738 739 740 741 741 742 743 745 746 747 748 749 750 752 753 754 755 755 756 757 758 758 759 760 760 760 761 762 762 763 764
687 689 690 691 693 695 696 697 699 700 701 703 704 706 707 709 710 712 713 714 716 717 719 720 721 723 724 725 726 727 728 729 730 731 732 733 734 735 736 737 738 738 739 740 741 742 743 745 746 747 748 750 750 751 752 753 754 755 755 756 756 757 758 759 759 760 760 761 762
685 687 688 690 691 693 694 695 697 699 700 701 703 704 705 707 708 710 711 713 714 715 717 718 720 721 722 724 725 725 726 727 728 729 730 731 732 733 734 735 735 736 736 737 738 739 740 742 743 745 746 747 748 749 750 750 751 752 753 754 754 755 756 756 757 758 758 759 760
683 685 686 688 689 690 692 694 695 697 698 699 701 702 704 705 707 708 710 711 712 714 715 716 718 719 720 721 723 723 724 725 726 727 728 729 730 730 731 732 733 733 734 735 735 737 738 739 740 742 743 744 745 746 747 748 748 749 750 751 751 752 753 754 755 755 756 757 758
681 683 684 685 687 688 690 691 693 695 696 697 699 700 702 703 705 706 708 709 710 712 713 714 716 717 718 719 720 721 723 724 724 725 726 727 728 729 730 730 731 731 732 733 734 735 736 737 738 739 740 741 742 743 744 745 746 746 747 748 749 750 750 751 752 753 754 755 756
679 680 682 683 685 686 687 689 690 692 694 695 697 699 700 701 703 704 705 707 708 710 711 712 714 715 716 717 719 720 721 722 723 724 725 725 726 727 728 729 730 730 731 732 733 734 735 736 737 738 739 740 740 741 742 743 744 745 745 746 747 748 749 750 751 752 753 754 755
677 678 680 681 682 684 685 686 688 690 692 694 695 697 698 699 700 702 703 705 706 708 709 711 712 713 714 715 717 718 719 720 721 722 723 724 725 725 726 728 729 730 731 732 733 733 734 735 735 736 738 739 740 740 741 742 743 744 745 746 747 748 749 750 751 752 753 754 754
675 676 677 679 680 682 683 685 686 688 690 691 693 695 696 697 698 700 701 703 705 706 708 709 710 712 713 714 715 717 718 719 720 720 721 722 723 724 725 726 728 728 729 730 730 731 732 733 734 735 736 737 738 739 740 741 742 743 744 745 746 747 749 750 750 751 752 752 753
672 674 675 677 678 680 681 683 684 686 687 689 691 692 694 695 697 698 700 701 703 705 706 707 709 710 711 713 714 715 716 717 718 719 720 721 722 723 724 725 726 725 725 725 726 728 729 730 732 733 734 735 737 738 739 740 741 742 743 745 745 746 747 748 749 749 750 751 751
670 671 673 675 676 678 679 681 682 684 685 687 689 690 692 694 695 697 699 700 701 703 704 705 707 708 710 711 712 713 715 715 716 717 719 720 720 721 722 723 723 722 722 723 724 725 727 728 730 731 732 734 735 736 737 738 740 741 742 744 744 745 746 747 748 749 749 750 750
667 669 671 673 674 676 678 679 681 682 684 685 687 689 690 692 694 695 697 698 700 701 702 704 705 707 708 710 711 712 713 714 715 716 717 718 720 721 721 721 721 721 721 722 723 724 725 727 729 730 732 733 735 736 737 738 739 740 741 742 743 745 745 746 747 748 749 749 750
665 667 669 671 673 675 676 678 680 681 682 684 685 687 689 691 692 694 696 697 699 700 701 703 704 706 707 708 710 711 712 713 714 715 717 718 719 720 720 720 720 720 720 720 722 723 725 726 728 729 731 732 734 735 736 737 738 739 740 741 743 744 745 746 747 748 748 749 749
663 665 667 669 671 673 675 677 678 680 681 683 685 686 688 690 691 693 695 696 698 699 700 701 703 704 705 707 709 711 713 714 715 716 717 717 718 718 718 719 720 719 719 720 721 723 724 725 727 729 730 731 733 734 735 736 738 739 740 742 743 744 745 746 747 748 748 749 749
661 664 666 668 670 672 674 676 678 679 681 683 685 686 688 689 691 692 694 695 696 697 699 700 701 703 705 707 709 711 713 714 715 716 716 716 716 717 718 719 719 719 719 720 721 722 724 725 727 728 729 730 731 733 734 736 738 739 740 742 743 745 745 746 747 748 749 750 750
660 662 665 667 669 671 673 675 677 679 680 682 684 686 687 689 690 691 692 694 695 697 698 700 701 703 705 705 707 710 711 712 713 714 715 716 716 717 718 718 719 719 719 720 721 722 723 725 726 728 729 730 731 732 734 735 737 739 741 742 744 745 746 747 748 749 750 750 751
659 661 663 665 668 670 672 674 676 678 680 682 684 685 687 688 690 690 692 693 695 696 698 699 700 701 703 704 707 710 711 712 713 714 715 716 717 717 717 718 719 720 720 720 721 721 723 724 725 727 729 730 730 731 733 735 737 739 741 743 744 745 747 748 749 750 751 751 751
658 660 662 664 666 668 670 673 675 677 679 681 682 684 686 688 689 690 690 691 693 695 696 697 700 702 703 705 708 711 712 713 715 715 716 717 717 718 718 719 720 720 720 721 721 722 723 724 725 727 728 730 731 731 733 735 737 740 742 744 745 746 747 749 750 751 751 752 752
Wind_Speed
29 28 28 28 28 27 27 27 26 26 27 27 27 27 27 27 27 27 27 28 30 31 30 28 27 26 25 26 28 30 32 32 34 35 36 37 36 35 33 34 34 36 38 38 38 38 36 35 34 33 32 31 32 32 32 32 32 31 31 30 30 30 30 30 29 29 28 27 27
29 29 29 28 28 27 26 26 26 27 27 27 27 27 28 28 28 27 26 28 31 34 33 30 27 25 24 25 28 30 32 33 34 35 36 37 37 35 34 33 34 36 37 38 38 37 36 35 34 32 31 31 31 31 31 31 31 31 30 30 30 29 30 30 30 30 29 28 28
29 29 28 28 28 27 26 26 26 28 28 27 27 27 27 28 28 26 25 26 30 33 32 29 26 25 24 24 26 29 32 33 34 35 36 37 37 36 34 33 34 36 37 38 38 37 36 35 34 32 31 31 31 31 31 31 30 30 30 31 30 29 29 30 30 31 30 29 29
29 29 28 29 29 28 27 26 28 29 29 28 28 27 27 28 27 26 25 25 28 30 29 27 25 24 23 23 25 28 31 32 34 35 36 37 37 36 34 33 34 35 37 38 38 37 36 35 34 32 31 31 31 31 31 30 30 30 30 31 30 29 29 29 30 31 31 30 30
29 29 29 29 30 30 29 28 29 30 29 28 29 28 27 28 28 27 25 25 26 27 27 26 24 23 23 23 25 27 29 31 33 35 36 37 37 36 35 33 34 35 36 37 37 37 36 36 34 32 32 32 31 31 31 30 30 29 30 30 30 29 29 29 30 30 30 30 30
29 30 30 30 31 30 29 28 30 30 30 28 28 28 28 27 27 27 27 26 27 27 27 25 24 22 22 23 24 26 27 29 30 32 34 36 37 37 36 35 34 34 35 36 37 37 36 36 33 32 31 31 31 31 31 30 30 29 29 29 29 29 29 29 29 30 30 30 30
29 30 30 30 31 30 28 29 30 31 30 29 29 29 29 29 29 29 29 29 29 28 26 25 23 22 22 23 24 25 26 27 27 27 29 32 35 37 37 36 34 33 34 35 36 36 36 35 33 31 30 30 29 29 29 30 30 29 29 28 28 29 29 29 29 29 29 30 30
29 30 30 30 31 30 29 29 30 31 30 29 30 30 31 31 31 31 31 31 30 28 27 26 24 22 22 22 24 24 25 25 26 25 24 25 30 35 37 37 35 33 33 34 34 35 34 34 32 30 30 29 28 28 28 29 29 29 29 28 28 29 29 29 29 29 29 30 30
28 29 30 30 31 30 29 29 30 30 30 30 30 31 32 32 32 32 32 31 31 30 29 27 24 22 22 22 24 24 25 25 26 24 22 20 23 29 34 36 35 33 33 33 33 33 33 32 30 29 29 29 28 27 28 29 29 29 29 28 28 29 29 29 29 29 29 30 31
27 28 29 29 30 30 29 29 29 30 30 30 30 31 32 32 32 32 33 32 31 30 29 27 25 23 22 23 24 25 26 26 26 25 22 20 21 25 30 32 33 33 33 33 33 32 32 30 29 28 28 28 27 27 27 28 29 29 29 28 28 28 29 29 29 29 29 30 31
27 28 28 28 30 30 29 29 29 29 30 29 30 31 32 32 32 32 32 32 30 29 29 28 26 23 22 23 25 27 28 27 26 25 23 21 22 24 27 29 30 32 33 34 32 31 30 28 27 27 27 27 27 27 27 27 28 29 29 28 28 28 28 29 29 29 29 30 31
26 27 28 28 29 30 29 28 28 28 29 29 29 30 31 31 31 31 31 30 29 29 29 28 26 24 22 23 25 27 29 28 27 25 24 23 24 25 27 27 28 29 32 33 32 30 28 27 26 26 25 25 26 26 26 26 27 28 29 28 28 28 28 29 30 30 30 30 30
26 26 27 27 28 29 29 28 27 28 28 28 29 30 30 30 31 31 31 30 29 28 28 27 26 24 23 22 24 26 28 29 28 27 26 25 26 26 27 27 26 27 29 32 31 30 29 28 27 26 25 25 25 25 25 26 27 27 28 28 28 28 29 29 30 30 30 30 30
25 25 26 26 27 28 28 28 26 26 27 28 29 29 29 30 30 31 31 30 29 28 28 27 25 24 23 23 24 25 27 28 28 28 28 28 28 28 27 27 26 25 26 28 30 30 30 29 28 27 26 26 26 26 26 26 27 27 27 28 28 29 30 30 31 31 31 30 30
24 25 25 25 26 27 27 27 25 25 26 27 27 28 28 28 29 30 30 30 29 28 27 26 25 24 24 24 24 25 27 28 29 30 30 30 29 29 28 27 26 25 25 26 28 29 30 30 30 29 27 26 26 26 26 27 27 27 28 29 29 30 30 31 31 31 31 31 31
24 25 25 25 26 26 26 26 24 23 25 26 26 26 26 26 28 29 30 29 29 28 27 26 26 25 25 25 25 25 27 28 29 30 31 31 31 30 30 29 27 27 27 26 27 28 29 30 30 30 29 27 27 26 27 27 28 28 29 29 30 30 31 31 31 31 31 31 32
25 26 26 26 26 26 26 25 23 22 24 25 26 26 25 25 26 28 30 30 29 28 28 27 27 26 26 26 26 26 26 27 29 30 31 32 32 32 31 31 30 30 30 29 28 28 29 29 29 30 30 29 28 27 27 28 28 29 30 31 31 32 32 32 32 32 32 32 33
26 27 27 27 27 27 27 26 24 23 24 26 27 26 26 26 26 27 29 31 30 30 29 29 28 27 27 27 27 27 26 27 28 30 31 32 32 33 33 33 33 33 33 32 31 30 30 29 29 29 30 30 29 29 29 29 29 30 31 32 32 33 33 34 34 33 33 34 35
27 28 28 28 28 28 28 28 26 25 25 27 27 27 27 27 27 28 29 31 31 31 31 30 30 29 29 29 29 28 28 28 29 30 31 32 32 33 33 33 33 34 34 34 34 33 32 31 30 30 31 31 31 30 30 30 30 31 32 33 34 34 35 35 36 36 36 36 36
28 28 28 28 28 28 28 28 27 26 26 27 28 28 28 28 28 28 29 31 32 32 32 31 31 30 30 30 30 30 30 29 29 30 30 31 32 32 33 33 33 33 34 34 34 34 34 33 32 32 32 32 32 32 31 31 31 32 33 34 35 36 37 38 38 38 38 38 38
28 28 28 28 28 28 29 29 28 27 27 28 29 29 29 29 29 29 30 31 32 32 32 32 31 31 30 31 31 31 31 30 30 30 30 31 31 31 32 32 32 33 34 35 35 36 36 35 35 34 33 33 34 34 33 33 33 34 35 35 36 37 39 39 40 40 40 40 39
28 28 28 29 29 29 29 29 29 28 28 28 29 30 29 29 29 30 30 31 32 32 32 32 31 31 31 31 31 31 31 30 30 31 31 31 31 31 32 32 33 33 35 36 36 37 37 37 37 36 36 35 36 36 36 36 35 36 36 37 38 39 40 41 41 41 41 41 40
28 28 29 29 30 30 30 30 29 28 28 28 30 30 30 30 30 30 30 31 32 32 32 32 32 31 31 31 32 32 31 31 31 31 32 32 32 33 33 33 33 34 35 36 37 38 38 39 39 38 38 38 38 38 38 38 37 37 38 38 39 40 40 41 41 41 41 41 40
29 29 29 29 30 30 30 30 30 29 28 29 30 30 30 30 29 29 30 30 31 31 32 31 31 32 32 32 32 33 33 33 33 33 33 34 34 34 34 35 35 36 36 37 38 38 39 39 39 39 39 39 39 38 38 38 38 38 38 39 39 40 40 40 39 39 39 39 38
29 29 29 29 30 30 30 30 30 29 29 29 29 30 30 30 29 29 29 29 30 31 31 31 31 32 32 33 33 34 34 34 34 34 34 35 35 36 36 37 37 38 38 39 39 40 40 40 40 39 39 39 39 38 38 38 39 40 40 40 40 39 38 37 37 36 35 34 33
30 30 30 30 30 30 30 30 30 29 29 29 29 30 30 30 29 29 29 29 30 31 32 32 32 32 33 33 34 35 35 36 36 36 36 37 37 37 37 38 39 39 40 41 41 41 41 42 42 41 41 40 39 39 39 40 41 41 42 42 41 39 37 36 34 33 31 30 28
30 30 30 30 30 30 31 31 30 30 29 29 29 30 30 30 29 29 29 29 30 31 32 32 32 32 33 33 33 34 35 36 37 38 38 39 39 39 38 38 39 40 41 42 43 43 43 43 44 44 43 42 41 40 40 41 42 42 42 42 41 40 38 36 33 31 29 27 25
31 30 30 30 30 31 31 31 31 30 30 30 30 30 30 30 30 29 30 30 30 30 31 31 32 32 32 33 33 34 35 37 38 39 40 40 40 40 39 39 40 41 43 44 44 44 44 45 45 45 45 45 43 42 41 41 41 42 42 42 41 40 39 37 34 31 28 25 23
31 31 30 30 30 31 31 32 32 31 31 31 30 30 30 30 30 30 30 30 30 30 30 30 31 31 32 32 33 34 35 36 38 39 40 40 40 40 40 39 40 41 42 44 44 45 45 46 46 47 47 46 44 43 41 40 40 40 40 40 40 39 37 35 32 30 26 24 22
32 31 31 31 30 31 32 32 32 32 32 31 31 31 30 30 30 31 31 31 31 31 30 30 30 31 32 33 33 32 33 34 36 37 38 39 38 38 37 37 36 37 37 38 39 40 42 43 44 45 46 47 45 43 40 38 37 37 36 35 34 33 30 27 25 23 21 20 18
32 32 32 32 31 31 31 32 33 32 32 31 31 31 31 31 31 31 31 31 31 31 31 31 30 31 32 32 32 31 31 31 32 33 35 36 36 36 34 33 31 29 28 27 28 30 32 33 35 36 37 39 39 39 37 35 32 31 29 27 25 22 20 18 17 16 15 14 14
33 33 33 33 32 31 31 32 32 32 32 32 32 32 32 31 32 32 32 31 31 31 32 31 31 31 31 32 31 31 30 28 28 28 29 31 31 32 31 28 25 23 22 21 21 22 22 24 24 25 25 26 27 28 28 27 25 23 20 18 15 14 13 13 12 12 11 10 10
33 33 33 33 33 32 31 31 32 32 32 32 32 32 32 31 31 31 31 31 31 32 32 32 32 32 31 31 31 30 29 28 26 25 25 25 26 27 26 25 21 20 21 22 22 21 21 21 20 20 19 19 18 19 20 19 18 16 14 12 12 13 12 12 11 10 9 8 8
33 33 33 33 33 32 31 31 31 31 32 32 32 32 31 31 30 30 30 31 31 32 33 33 33 33 32 32 31 31 30 29 27 26 25 24 24 24 23 21 19 20 22 23 24 24 23 22 21 20 19 17 15 15 15 15 14 14 14 14 14 13 12 10 9 8 7 6 6
34 33 33 32 32 31 31 30 29 30 30 31 31 31 31 31 30 30 30 30 30 31 32 33 33 33 32 32 32 32 31 30 29 28 27 26 25 24 23 21 18 19 21 21 24 25 25 24 22 20 18 16 14 13 13 14 15 16 16 16 14 13 11 9 8 7 6 5 5
33 33 32 32 31 31 30 29 28 27 27 28 29 29 30 30 29 29 29 28 28 28 30 31 31 31 31 31 31 31 30 29 29 28 26 24 23 22 21 19 16 16 18 20 22 23 23 23 21 19 16 14 13 13 15 17 18 19 18 16 15 14 12 11 10 9 8 7 7
32 32 32 31 30 30 29 29 27 26 25 24 25 26 27 28 28 27 27 26 26 26 27 29 30 30 30 29 27 25 22 20 20 19 17 14 14 15 16 15 12 12 15 18 19 20 20 19 19 17 15 14 14 16 19 20 20 20 19 18 17 17 15 14 13 12 11 10 10
32 31 31 30 30 29 29 28 27 25 23 22 21 21 22 24 25 25 25 25 24 25 26 27 27 27 26 23 18 13 10 9 8 9 9 7 7 9 11 10 8 9 11 14 15 16 16 16 16 16 16 17 19 21 22 21 21 20 20 20 20 19 18 18 17 17 17 16 15
31 31 30 30 29 29 28 28 27 25 23 21 19 18 18 19 21 22 23 23 22 21 21 21 20 18 18 17 15 12 11 11 11 11 11 9 8 9 9 8 5 4 6 9 12 13 14 14 15 15 17 19 22 23 23 22 21 20 21 21 22 22 22 22 22 23 23 22 21
30 30 30 30 30 29 29 28 27 26 24 22 20 18 17 17 17 18 18 19 17 14 12 14 16 18 18 19 18 18 19 20 19 18 17 15 14 13 12 10 9 6 4 4 7 10 12 14 15 16 18 20 21 22 22 21 21 21 22 23 24 24 25 26 26 27 27 27 26
29 30 30 30 30 30 29 28 27 26 25 24 23 21 18 15 13 12 13 15 15 16 17 21 22 22 22 23 22 22 24 26 25 24 23 22 20 19 18 17 15 14 11 8 6 7 10 13 15 16 17 18 19 21 22 21 21 22 23 25 25 26 27 28 29 29 29 29 28
Wind_Direction
178 178 177 177 177 178 179 180 181 181 183 184 186 186 186 186 187 188 189 188 187 185 183 181 181 182 184 186 188 191 193 195 196 198 200 201 203 203 203 201 199 198 198 198 199 199 200 200 200 200 199 200 200 201 201 201 200 200 200 201 202 204 205 206 207 209 211 213 215
179 178 178 178 178 179 180 181 181 182 184 185 186 186 187 187 187 188 189 190 190 189 187 185 185 185 186 188 190 192 194 196 197 199 201 203 205 206 204 201 199 198 198 197 197 198 198 199 198 198 198 199 199 200 200 201 200 200 201 202 204 206 207 208 209 211 213 215 217
180 180 180 181 180 180 181 182 183 184 185 186 187 186 187 187 188 188 188 189 190 190 189 189 190 191 191 193 194 195 196 197 199 201 203 205 207 207 206 202 200 198 198 197 197 197 197 198 197 197 197 198 199 199 200 200 201 201 202 204 206 207 208 210 211 213 215 216 217
182 182 182 183 184 184 184 184 185 186 185 185 186 187 186 187 187 187 187 186 186 187 188 190 193 195 197 199 199 198 198 199 200 202 204 207 209 209 207 203 200 198 198 197 197 197 197 197 197 197 197 198 199 200 200 200 201 202 204 206 207 209 210 212 213 215 216 217 218
184 184 184 185 186 186 187 187 187 186 186 186 187 187 187 188 188 187 185 183 183 184 187 189 192 196 200 203 203 201 200 200 202 204 206 208 210 211 209 206 202 200 199 198 197 197 196 196 196 196 197 198 199 201 202 202 202 203 206 207 209 210 212 214 215 216 217 218 219
186 186 187 188 188 189 189 189 188 187 186 187 187 187 187 187 186 186 185 184 184 185 186 188 191 195 199 203 204 202 201 201 204 206 209 211 212 213 212 210 206 202 199 198 197 196 196 195 195 196 197 198 200 201 203 203 203 204 206 208 210 212 213 215 216 218 218 219 219
186 187 188 190 190 189 190 191 190 188 187 188 188 187 187 187 187 187 187 187 186 186 187 188 191 195 199 202 203 202 201 200 203 207 211 213 215 216 215 213 209 205 201 199 197 195 194 194 194 195 196 197 199 201 202 203 203 203 205 207 210 212 214 216 218 218 219 220 220
187 188 189 189 190 189 189 191 189 188 188 188 188 188 188 189 189 189 189 189 189 189 190 191 193 196 200 202 202 200 198 197 198 201 206 213 216 217 216 215 211 206 201 197 195 194 193 193 192 193 194 195 197 199 200 201 202 203 204 207 210 213 214 216 218 219 220 221 221
188 189 189 189 189 189 189 189 189 188 189 190 189 189 189 189 190 190 190 190 191 192 193 194 195 198 201 203 201 197 194 193 192 193 196 204 211 214 215 214 210 205 199 195 192 191 191 191 191 191 192 193 194 196 198 200 201 203 205 207 210 213 215 216 218 219 221 221 222
188 189 189 189 189 188 188 188 189 189 189 190 190 189 189 189 189 190 191 192 193 194 194 195 196 199 201 202 199 195 192 191 190 189 190 196 203 208 209 208 204 198 195 194 191 190 190 190 189 189 190 192 193 194 196 199 201 203 206 209 211 213 216 217 219 220 221 222 223
186 186 187 187 187 187 187 187 188 189 190 191 190 190 189 189 189 190 191 191 192 193 194 195 195 196 198 199 197 195 193 191 190 190 191 195 199 202 202 199 194 190 189 191 191 190 190 191 190 190 190 191 193 194 196 199 202 205 208 211 213 215 217 219 220 221 222 223 224
184 185 185 186 186 186 187 187 188 189 190 191 191 190 190 189 189 189 189 190 190 191 193 194 194 194 194 195 197 196 195 193 192 193 194 197 199 200 199 195 188 184 184 186 187 188 190 194 195 195 194 194 195 197 199 202 205 207 210 213 216 218 220 221 222 223 224 225 225
183 184 184 185 185 186 187 188 189 189 190 191 191 191 191 191 190 189 189 189 189 190 191 193 193 193 193 194 195 196 196 195 195 196 198 199 200 201 200 198 192 185 183 184 185 187 191 195 200 201 201 200 200 202 204 206 209 211 213 216 218 220 222 224 225 225 225 225 226
182 182 183 183 184 186 187 188 190 190 191 191 191 191 191 192 191 191 190 190 190 191 192 193 194 195 195 194 194 195 196 197 199 200 201 202 202 202 203 202 199 194 189 187 188 190 193 198 203 205 206 206 206 208 210 211 213 215 217 219 220 222 224 226 227 227 226 226 226
182 182 182 183 184 185 187 188 190 190 191 191 191 191 191 192 192 191 191 192 192 193 194 195 196 197 198 197 196 196 197 199 201 203 205 206 206 205 205 205 204 203 200 196 195 196 199 202 206 208 210 210 210 211 213 215 217 219 221 222 223 224 226 227 228 228 227 226 227
183 183 183 183 184 185 187 188 189 190 190 190 190 190 190 191 192 192 192 193 194 196 197 197 198 199 200 200 199 199 199 201 203 205 207 209 209 209 208 207 207 207 207 206 205 205 206 207 209 211 213 214 214 215 216 218 221 222 223 224 225 226 227 228 228 228 228 228 228
185 185 185 185 185 185 187 188 189 189 189 189 189 189 190 191 191 193 194 195 197 198 200 201 201 201 201 202 202 202 202 203 204 206 208 210 211 212 211 210 210 210 210 211 211 212 212 212 213 214 217 219 219 220 220 221 223 225 226 227 227 227 228 229 229 229 229 229 229
187 187 187 187 186 185 186 188 189 189 188 188 189 190 191 191 192 193 195 197 198 200 202 203 203 203 203 203 203 204 204 205 206 207 208 210 212 213 213 213 213 213 214 214 216 217 217 217 217 218 220 222 224 224 224 224 226 228 229 229 229 229 230 230 230 230 230 231 232
189 188 188 187 186 185 186 187 189 190 189 189 190 191 191 192 192 194 196 198 200 201 203 204 204 205 205 204 204 205 206 207 208 208 209 210 212 214 215 216 216 217 217 218 219 220 221 222 222 222 222 224 226 227 227 226 227 228 229 230 230 231 231 232 232 232 232 233 234
189 189 188 187 186 185 186 187 189 190 190 190 190 191 192 193 194 194 196 197 200 202 203 204 204 205 206 206 206 206 207 208 209 210 210 211 212 214 215 216 217 218 219 221 222 223 224 225 225 225 225 225 226 227 227 227 227 228 229 230 231 232 232 233 233 234 234 234 235
190 189 188 187 186 186 186 188 190 191 191 190 190 190 192 193 194 195 196 197 199 201 202 203 204 205 205 206 206 207 207 208 210 210 211 211 212 213 214 215 216 218 219 221 223 224 225 227 227 227 226 226 226 226 226 226 227 227 229 230 232 233 234 234 234 235 235 236 236
190 189 188 187 187 187 187 188 190 191 191 189 189 190 192 193 195 196 197 197 198 200 201 203 203 204 205 205 206 206 206 207 209 210 211 211 212 212 213 213 214 216 218 220 222 223 225 226 226 226 226 226 226 225 225 225 226 227 228 230 232 233 234 235 235 236 236 237 237
190 189 188 188 188 188 188 189 190 190 190 189 189 190 192 193 195 196 197 197 197 199 200 202 203 204 204 205 205 205 205 206 207 209 210 211 212 212 213 213 214 215 217 219 220 222 223 224 224 225 225 225 225 225 225 225 226 227 228 230 232 233 234 235 236 237 237 238 239
190 189 189 189 189 189 188 189 190 190 189 189 189 190 192 194 195 196 196 196 196 197 199 200 202 203 204 204 204 204 204 204 206 208 209 211 212 213 214 214 215 216 217 218 219 220 221 221 222 223 224 225 225 225 225 225 226 227 228 230 232 233 234 235 237 238 238 239 239
191 190 190 190 190 190 190 190 190 190 190 189 190 191 192 194 195 196 195 195 195 196 198 200 201 203 204 204 204 204 204 205 206 207 209 211 212 213 214 215 216 216 217 218 218 219 219 220 220 221 222 223 224 225 226 226 227 228 229 230 231 233 234 236 237 238 239 239 238
191 191 191 191 191 191 191 191 191 191 191 191 191 192 193 194 196 196 196 196 196 197 198 200 201 203 204 205 206 206 206 207 208 209 210 211 212 214 214 215 216 216 217 217 218 218 218 219 219 220 221 222 223 224 225 226 227 228 229 230 231 232 234 235 236 237 237 236 232
192 192 192 192 192 192 193 193 193 192 192 192 192 193 194 195 196 197 198 198 198 199 199 201 202 204 206 207 208 208 209 209 210 210 211 212 213 214 214 215 215 216 217 217 217 217 217 217 218 219 220 221 222 223 224 225 226 227 228 229 230 231 232 233 233 233 231 227 221
192 193 193 192 192 193 193 194 194 194 193 194 194 194 195 195 196 198 199 200 200 200 200 201 203 205 207 209 211 212 212 212 212 212 213 213 214 214 214 215 215 216 217 217 217 217 217 217 217 219 220 221 221 222 223 224 225 226 227 228 229 230 231 231 230 228 223 216 210
193 194 194 194 193 193 193 194 194 194 195 195 195 195 196 196 197 198 199 201 201 201 201 202 203 205 207 210 212 214 214 214 213 213 213 214 214 214 215 215 215 216 217 218 218 218 218 218 218 219 220 221 221 221 222 222 224 225 226 227 228 228 228 228 225 221 215 208 204
193 194 196 196 196 194 193 194 194 195 195 195 195 196 196 196 197 198 199 200 201 202 202 202 203 205 208 210 213 214 214 214 213 212 212 213 213 213 214 214 214 214 215 216 217 217 218 218 219 220 221 222 222 221 221 222 223 224 225 225 226 225 223 220 216 210 205 201 199
193 195 197 198 198 197 195 194 194 194 195 195 195 196 196 197 197 198 199 200 201 202 202 203 204 206 208 211 213 214 214 212 211 210 210 211 212 212 212 211 210 209 208 209 211 213 214 216 217 219 220 221 222 222 222 222 222 222 222 221 220 216 211 204 198 194 192 192 194
193 195 197 199 200 199 197 195 194 194 195 195 196 196 197 197 198 198 199 200 200 201 202 203 204 206 208 210 212 213 214 212 210 209 209 210 210 211 210 209 208 206 205 206 207 209 212 214 215 215 216 217 218 220 221 220 219 217 214 210 203 193 183 176 174 174 178 184 192
193 195 197 198 200 200 199 197 195 195 195 195 196 196 197 198 198 199 199 200 200 200 201 202 203 205 207 209 211 213 214 214 214 212 212 211 211 210 210 209 208 211 214 215 216 217 219 221 222 222 222 220 219 218 216 212 207 200 189 174 163 158 157 158 162 165 171 183 197
194 195 196 198 199 200 200 198 197 196 195 196 196 197 197 198 198 199 200 200 200 200 200 201 202 204 205 208 209 211 213 215 216 216 216 215 214 212 211 209 210 214 219 221 223 224 226 227 230 232 233 231 226 218 208 197 183 168 155 144 143 146 150 153 161 166 171 181 191
194 195 196 197 198 199 200 199 199 198 197 196 196 197 197 198 199 200 200 200 200 199 199 200 201 202 204 206 208 210 212 213 215 217 217 218 217 214 211 207 211 217 221 223 224 225 226 228 230 233 235 234 225 209 190 172 154 145 141 137 139 140 140 141 146 153 159 162 164
194 194 195 196 197 198 200 200 201 200 199 198 197 197 197 198 199 200 200 200 199 197 197 198 198 200 201 203 206 208 210 212 214 215 216 217 216 212 207 205 211 220 225 226 225 224 225 225 226 228 229 226 212 189 168 153 142 138 136 132 130 128 124 120 119 122 127 131 134
194 194 194 195 196 198 199 201 203 203 202 200 199 197 197 197 198 199 199 198 196 194 194 195 196 197 198 201 202 203 206 210 212 211 208 205 203 201 199 201 210 224 230 229 228 227 225 223 221 219 216 208 188 168 152 141 135 131 127 120 115 112 109 107 104 101 100 103 111
193 193 193 193 195 197 199 201 203 205 205 203 201 199 197 197 197 197 197 196 195 193 193 194 195 195 194 192 186 180 177 184 188 185 179 168 164 174 183 189 205 226 232 231 230 228 224 219 212 206 199 187 169 154 143 134 128 124 119 113 108 103 101 99 96 92 89 88 93
193 192 192 192 193 196 198 201 203 204 205 204 202 200 198 196 195 196 198 198 199 198 196 192 186 180 173 164 152 132 117 122 125 130 132 131 119 130 149 157 162 199 225 225 224 222 217 209 197 188 180 170 158 147 138 132 126 120 116 111 105 100 96 94 92 89 86 83 82
192 191 191 191 192 194 196 199 201 203 204 204 203 201 198 195 194 196 197 196 195 191 176 154 142 138 136 132 131 114 99 100 102 104 105 104 101 105 111 110 100 95 117 179 203 209 206 198 188 179 171 164 155 146 139 133 127 121 115 110 105 99 94 91 88 85 82 78 74
191 190 191 191 192 192 194 195 197 199 201 202 202 201 198 193 185 175 166 160 152 140 126 117 119 120 120 119 118 107 95 89 88 88 90 90 91 91 89 87 86 87 92 107 137 168 180 181 182 181 176 169 159 150 142 137 131 123 115 108 104 100 94 90 86 82 78 75 72